Tracking 25703 objects as of 2-Jul-2022
HD Live streaming from Space Station
objects crossing your sky now

NOAA 16 DEB

Track NOAA 16 DEB now!
10-day predictions


NORAD ID: 41233
Int'l Code: 2000-055EN
Perigee: 839.1 km
Apogee: 900.5 km
Inclination: 98.8 °
Period: 102.2 minutes
Semi major axis: 7240 km
RCS: Unknown
Launch date: September 21, 2000
Source: United States (US)
Launch site: AIR FORCE WESTERN TEST RANGE (AFWTR)

Note: This is SATELLITE DEBRIS
aabbcc
Your satellite tracking list
Your tracking list is empty




NASA's NSSDC Master Catalog

Two Line Element Set (TLE):
1 41233U 00055EN  22182.59020161  .00000826  00000-0  49765-3 0  9992
2 41233  98.7636 231.7337 0042380 310.7695  48.9800 14.09036635336613
Source of the keplerian elements: AFSPC